Location: Newark
(44.1667°N, 8.2500°E)
Time: 16:41:56
(UTC+00:00)

Envisat - Visible Passes

Search period start: 12 November 2019 00:00
Search period end: 22 November 2019 00:00
Orbit: 764 x 766 km, 98.1° (Epoch: 12 November)

Date Brightness Start Highest point End Pass type
(mag) Time Alt. Az. Time Alt. Az. Time Alt. Az.
12 Nov 5.8 05:22:20 10° NE 05:26:18 23° E 05:30:14 10° SE visible
12 Nov 3.6 16:38:10 10° SE 16:42:42 35° ENE 16:47:17 10° N visible
12 Nov 4.9 18:17:17 10° SSW 18:21:44 30° W 18:26:13 10° NNW visible
13 Nov 3.4 17:39:46 10° S 17:44:48 66° WSW 17:49:53 10° NNW visible
14 Nov 4.8 05:47:15 10° NNE 05:52:00 38° E 05:56:42 10° SSE visible
14 Nov 3.0 17:03:06 10° SSE 17:08:04 58° ENE 17:13:04 10° N visible
14 Nov 5.7 18:44:03 10° SW 18:47:28 18° W 18:50:54 10° NW visible
15 Nov 6.0 05:11:29 10° NE 05:14:55 18° E 05:18:20 10° SE visible
15 Nov 3.8 16:27:14 10° ESE 16:31:32 28° ENE 16:35:50 10° N visible
15 Nov 4.4 18:05:41 10° SSW 18:10:23 38° W 18:15:08 10° NNW visible
16 Nov 3.0 17:28:27 10° SSE 17:33:31 83° WSW 17:38:38 10° NNW visible
17 Nov 5.2 05:36:10 10° NNE 05:40:39 30° E 05:45:06 10° SSE visible
17 Nov 3.2 16:52:00 10° SE 16:56:50 47° ENE 17:01:42 10° N visible
17 Nov 5.4 18:32:09 10° SW 18:36:05 22° W 18:40:03 10° NW visible
18 Nov 6.1 05:00:49 10° ENE 05:03:31 14° E 05:06:11 10° ESE visible
18 Nov 4.0 17:54:11 10° S 17:59:04 48° W 18:04:00 10° NNW visible
19 Nov 2.9 17:17:11 10° SSE 17:22:15 80° ENE 17:27:21 10° N visible
19 Nov 6.0 18:59:36 10° WSW 19:01:53 13° W 19:04:10 10° WNW visible
20 Nov 5.6 05:25:10 10° NE 05:29:17 25° E 05:33:24 10° SSE visible
20 Nov 3.5 16:40:59 10° SE 16:45:38 38° ENE 16:50:18 10° N visible
20 Nov 5.0 18:20:23 10° SSW 18:24:43 28° W 18:29:05 10° NW visible
21 Nov 6.4 04:50:42 10° ENE 04:52:05 11° E 04:53:28 10° ESE visible
21 Nov 3.5 17:42:45 10° S 17:47:46 61° W 17:52:48 10° NNW visible
